Weather reports worldwide

Advertisment
Coleshill, United Kingdom (3535): temperature & dewpoint: 21.04.2017 00:00:00 - 27.04.2017 00:00:00 (BST)Coleshill, United Kingdom (3535): temperature -20cm & temperature -100cm: 21.04.2017 00:00:00 - 27.04.2017 00:00:00 (BST)Coleshill, United Kingdom (3535): wind speed & gusts: 21.04.2017 00:00:00 - 27.04.2017 00:00:00 (BST)Coleshill, United Kingdom (3535): wind direction: 21.04.2017 00:00:00 - 27.04.2017 00:00:00 (BST)Coleshill, United Kingdom (3535): reduced air pressure: 21.04.2017 00:00:00 - 27.04.2017 00:00:00 (BST)Coleshill, United Kingdom (3535): visibility: 21.04.2017 00:00:00 - 27.04.2017 00:00:00 (BST)Coleshill, United Kingdom (3535): precipitation: 21.04.2017 00:00:00 - 27.04.2017 00:00:00 (BST)
Date & Time tt [°C] td [°C] tt -20cm [°C] tt -100cm [°C] ff [km/h] ff [kn] fx [km/h] fx [kn] dd ppp [hPa] vv [km] rr [mm]
27.04.2017 00:00:00 3,4 1,7 - - 5 3 - - S 1021,5 29 0,0
26.04.2017 23:00:00 3,8 1,5 - - 5 3 - - E 1021,5 35 0,0
26.04.2017 22:00:00 4,4 1,7 - - 8 4 - - S 1021,2 35 0,0
26.04.2017 21:00:00 4,4 1,5 - - 4 2 - - WNW 1020,9 45 0,2
26.04.2017 20:00:00 6,0 0,7 - - 4 2 - - E 1020,4 45 0,0
26.04.2017 19:00:00 6,2 0,5 - - 4 2 - - E 1020,0 45 0,0
26.04.2017 18:00:00 9,3 -1,3 - - 18 10 - - NNW 1019,4 50 0,0
26.04.2017 17:00:00 7,3 -0,6 - - 18 10 - - N 1019,5 50 0,0
26.04.2017 16:00:00 6,9 1,6 - - 15 8 - - N 1019,8 50 0,0
26.04.2017 15:00:00 6,5 0,8 - - 16 9 - - NW 1019,6 50 0,0
26.04.2017 14:00:00 6,7 1,3 - - 9 5 - - N 1019,7 50 0,2
26.04.2017 13:00:00 8,3 1,5 - - 15 8 - - NNW 1019,5 50 0,0
26.04.2017 12:00:00 6,1 0,1 - - 21 11 - - NNW 1019,8 50 0,0
26.04.2017 11:00:00 6,3 0,1 - - 18 10 - - N 1019,5 50 0,0
26.04.2017 10:00:00 5,4 1,1 10,0 10,2 18 10 - - NNW 1019,5 40 0,0
26.04.2017 09:00:00 3,9 0,3 - - 18 10 - - NNW 1019,5 40 0,0
26.04.2017 08:00:00 3,5 0,6 - - 16 9 - - NNW 1019,1 40 0,0
26.04.2017 07:00:00 2,4 0,0 - - 15 8 - - NNW 1018,8 40 0,0
26.04.2017 06:00:00 2,6 0,2 - - 15 8 - - NW 1018,3 40 0,0
26.04.2017 05:00:00 2,8 0,5 - - 15 8 - - NNW 1017,9 45 0,0
26.04.2017 04:00:00 3,0 0,7 - - 13 7 - - NW 1017,8 45 0,0
26.04.2017 03:00:00 2,9 0,7 - - 11 6 - - NNW 1017,7 50 0,0
26.04.2017 02:00:00 2,9 0,6 - - 13 7 - - NW 1017,8 50 0,0
26.04.2017 01:00:00 2,3 0,4 - - 13 7 - - NNW 1017,7 50 0,0
26.04.2017 00:00:00 1,8 0,8 - - 8 4 - - NW 1017,7 40 0,0
25.04.2017 23:00:00 2,1 0,8 - - 9 5 - - N 1017,1 45 0,0
25.04.2017 22:00:00 3,7 1,8 - - 16 9 - - NNW 1016,9 50 0,0
25.04.2017 21:00:00 2,4 1,2 - - 5 3 - - NW 1016,4 50 0,0
25.04.2017 20:00:00 3,7 1,2 - - 15 8 - - NW 1015,8 50 0,0
25.04.2017 19:00:00 5,5 2,0 - - 11 6 - - N 1015,6 50 0,0
25.04.2017 18:00:00 4,3 1,5 - - 28 15 46 25 N 1015,4 50 0,6
25.04.2017 17:00:00 4,7 0,9 - - 21 11 46 25 NNE 1015,1 8 0,0
25.04.2017 16:00:00 8,8 1,5 - - 21 11 - - NNW 1014,1 50 0,0
25.04.2017 15:00:00 6,7 1,5 - - 22 12 50 27 NW 1014,8 50 0,0
25.04.2017 14:00:00 9,3 1,5 - - 18 10 - - NNW 1014,3 50 0,0
25.04.2017 13:00:00 8,1 -1,4 - - 26 14 - - NNW 1014,6 50 0,0
25.04.2017 12:00:00 6,8 -0,7 - - 21 11 - - NW 1015,0 50 0,0
25.04.2017 11:00:00 6,8 -0,6 - - 21 11 - - NNW 1014,9 50 0,0
25.04.2017 10:00:00 5,7 -1,5 10,4 10,4 18 10 - - NNW 1014,9 50 0,0
25.04.2017 09:00:00 4,5 -0,8 - - 18 10 - - NNW 1014,9 50 0,0
25.04.2017 08:00:00 3,0 1,2 - - 8 4 - - N 1014,7 40 0,0
25.04.2017 07:00:00 1,7 0,8 - - 4 2 - - NW 1013,9 19 0,0
25.04.2017 06:00:00 1,9 1,1 - - 11 6 - - NW 1013,4 22 0,0
25.04.2017 05:00:00 1,5 0,5 - - 9 5 - - NW 1013,1 40 0,0
25.04.2017 04:00:00 1,2 0,1 - - 8 4 - - WNW 1013,1 30 0,0
25.04.2017 03:00:00 2,5 -1,9 - - 11 6 - - WNW 1013,4 40 0,0
25.04.2017 02:00:00 1,5 -2,7 - - 11 6 - - W 1013,6 40 0,0
25.04.2017 01:00:00 1,9 -2,1 - - 13 7 - - W 1013,9 40 0,0
25.04.2017 00:00:00 3,4 -2,5 - - 18 10 - - WNW 1014,3 40 0,0
24.04.2017 23:00:00 3,4 -2,4 - - 21 11 - - WNW 1014,4 40 0,0
24.04.2017 22:00:00 4,3 -3,7 - - 26 14 - - NW 1014,4 40 0,0
24.04.2017 21:00:00 5,3 -5,0 - - 24 13 - - WNW 1014,2 50 0,0
24.04.2017 20:00:00 6,6 -2,6 - - 22 12 46 25 WNW 1013,8 50 0,0
24.04.2017 19:00:00 8,3 -0,7 - - 26 14 46 25 NW 1013,7 50 0,0
24.04.2017 18:00:00 8,9 -1,9 - - 26 14 48 26 NW 1013,7 50 0,0
24.04.2017 17:00:00 9,8 2,8 - - 22 12 - - NW 1013,5 50 0,0
24.04.2017 16:00:00 9,9 5,8 - - 16 9 - - NW 1013,4 50 0,0
24.04.2017 15:00:00 9,0 6,3 - - 21 11 - - NW 1014,1 50 0,0
24.04.2017 14:00:00 10,1 8,6 - - 13 7 - - WNW 1014,2 45 0,2
24.04.2017 13:00:00 9,1 7,0 - - 13 7 - - WNW 1014,9 9 1,0
24.04.2017 12:00:00 10,6 6,4 - - 11 6 - - NW 1015,2 50 0,0
24.04.2017 11:00:00 11,3 7,2 - - 15 8 - - W 1015,8 50 0,0
24.04.2017 10:00:00 10,5 6,8 11,2 10,4 18 10 - - W 1016,2 50 0,0
24.04.2017 09:00:00 10,2 6,8 - - 9 5 - - WSW 1016,4 50 0,0
24.04.2017 08:00:00 9,4 7,1 - - 11 6 - - WSW 1017,1 50 0,0
24.04.2017 07:00:00 8,7 6,5 - - 8 4 - - WSW 1017,3 2,2 0,0
24.04.2017 06:00:00 8,3 5,4 - - 5 3 - - WSW 1017,7 2,1 0,0
24.04.2017 05:00:00 8,4 5,3 - - 5 3 - - WSW 1018,1 1,8 0,0
24.04.2017 04:00:00 8,2 5,1 - - 9 5 - - W 1018,9 50 0,0
24.04.2017 03:00:00 6,0 5,6 - - 8 4 - - W 1019,6 45 0,0
24.04.2017 02:00:00 4,1 3,1 - - 4 2 - - S 1020,4 40 0,0
24.04.2017 01:00:00 4,7 3,7 - - 4 2 - - S 1021,0 45 0,0
24.04.2017 00:00:00 4,4 2,8 - - 2 1 - - WNW 1021,6 50 0,0
23.04.2017 23:00:00 5,9 2,3 - - 2 1 - - W 1021,9 50 0,0
23.04.2017 22:00:00 8,5 3,7 - - 5 3 - - WNW 1022,4 50 0,0
23.04.2017 21:00:00 9,9 4,1 - - 16 9 - - NW 1022,6 50 0,0
23.04.2017 20:00:00 13,4 3,8 - - 11 6 - - W 1021,8 50 0,0
23.04.2017 19:00:00 13,5 4,3 - - 11 6 - - W 1022,1 50 0,0
23.04.2017 18:00:00 14,6 5,0 - - 8 4 - - WSW 1022,5 50 0,0
23.04.2017 17:00:00 14,9 3,8 - - 11 6 - - W 1023,1 50 0,0
23.04.2017 16:00:00 14,9 4,7 - - 9 5 - - W 1023,9 50 0,0
23.04.2017 15:00:00 13,8 4,3 - - 11 6 - - W 1024,7 50 0,0
23.04.2017 14:00:00 12,8 3,5 - - 13 7 - - W 1025,4 50 0,0
23.04.2017 13:00:00 11,8 3,4 - - 13 7 - - NW 1026,1 50 0,0
23.04.2017 12:00:00 12,1 4,8 - - 11 6 - - NW 1026,7 50 0,0
23.04.2017 11:00:00 11,4 5,0 - - 5 3 - - N 1027,1 45 0,0
23.04.2017 10:00:00 9,8 2,3 10,9 10,2 5 3 - - W 1027,4 22 0,0
23.04.2017 09:00:00 8,1 2,9 - - 4 2 - - W 1027,7 35 0,0
23.04.2017 08:00:00 4,7 3,3 - - 0 0 - - N 1028,0 30 0,0
23.04.2017 07:00:00 2,9 2,3 - - 4 2 - - NNW 1028,0 30 0,0
23.04.2017 06:00:00 1,5 1,2 - - 4 2 - - E 1027,9 26 0,0
23.04.2017 05:00:00 0,5 0,1 - - 0 0 - - N 1028,2 26 0,0
23.04.2017 04:00:00 0,7 0,0 - - 2 1 - - E 1028,3 26 0,0
23.04.2017 03:00:00 1,0 -0,1 - - 0 0 - - N 1028,6 35 0,0
23.04.2017 02:00:00 2,5 0,6 - - 4 2 - - NNE 1028,9 40 0,0
23.04.2017 01:00:00 3,1 0,4 - - 2 1 - - E 1029,1 40 0,0
23.04.2017 00:00:00 4,3 1,0 - - 2 1 - - N 1029,2 40 0,0
22.04.2017 23:00:00 5,4 0,8 - - 4 2 - - NW 1029,0 45 0,0
22.04.2017 22:00:00 7,2 0,7 - - 9 5 - - WNW 1028,7 50 0,0
22.04.2017 21:00:00 8,4 0,6 - - 13 7 - - NW 1028,2 50 0,0
22.04.2017 20:00:00 10,6 0,9 - - 11 6 - - NW 1027,7 50 0,0
22.04.2017 19:00:00 12,4 2,0 - - 15 8 - - NNW 1027,5 50 0,0
22.04.2017 18:00:00 13,2 2,6 - - 15 8 - - N 1027,5 50 0,0
22.04.2017 17:00:00 13,2 3,3 - - 15 8 - - NNW 1027,6 50 0,0
22.04.2017 16:00:00 13,8 4,4 - - 15 8 - - N 1028,0 50 0,0
22.04.2017 15:00:00 13,5 4,4 - - 11 6 - - NNW 1028,4 45 0,0
22.04.2017 14:00:00 13,1 3,6 - - 13 7 - - NNW 1028,8 45 0,0
22.04.2017 13:00:00 12,0 2,1 - - 11 6 - - N 1029,2 50 0,0
22.04.2017 12:00:00 11,5 3,1 - - 13 7 - - NW 1029,8 50 0,0
22.04.2017 11:00:00 11,2 5,1 - - 16 9 - - NNW 1030,1 45 0,0
22.04.2017 10:00:00 8,9 3,0 10,9 10,2 - - - - - 1030,1 45 -
22.04.2017 09:00:00 8,7 4,2 - - 21 11 - - NNW 1030,2 40 0,0
22.04.2017 08:00:00 7,8 4,7 - - 16 9 - - NW 1030,2 35 0,0
22.04.2017 07:00:00 7,2 4,4 - - 13 7 - - NW 1029,8 35 0,0
22.04.2017 06:00:00 7,1 4,5 - - 16 9 - - NW 1029,3 35 0,0
22.04.2017 05:00:00 7,3 4,4 - - 16 9 - - NW 1029,5 40 0,0
22.04.2017 04:00:00 8,5 4,7 - - 16 9 - - NW 1029,5 50 0,0
22.04.2017 03:00:00 9,2 4,7 - - 22 12 - - NW 1029,6 50 0,0
22.04.2017 02:00:00 9,9 6,7 - - 11 6 - - NW 1029,7 40 0,0
22.04.2017 01:00:00 10,2 6,6 - - 13 7 - - WNW 1029,9 30 0,0
22.04.2017 00:00:00 10,5 6,6 - - 11 6 - - WNW 1030,0 35 0,0
21.04.2017 23:00:00 10,7 6,5 - - 13 7 - - WNW 1030,1 35 0,0
21.04.2017 22:00:00 11,0 6,6 - - 11 6 - - WNW 1030,1 40 0,0
21.04.2017 21:00:00 11,2 6,7 - - 15 8 - - WNW 1029,9 40 0,0
21.04.2017 20:00:00 11,7 6,2 - - 15 8 - - NW 1029,8 50 0,0
21.04.2017 19:00:00 12,1 5,7 - - 15 8 - - WNW 1029,9 50 0,0
21.04.2017 18:00:00 12,3 5,9 - - 15 8 - - WNW 1030,0 50 0,0
21.04.2017 17:00:00 12,2 5,4 - - 16 9 - - WNW 1030,3 50 0,0
21.04.2017 16:00:00 12,3 6,4 - - 13 7 - - W 1030,5 40 0,0
21.04.2017 15:00:00 12,2 5,9 - - 16 9 - - WNW 1031,1 45 0,0
21.04.2017 14:00:00 12,2 5,8 - - 16 9 - - WNW 1031,4 40 0,0
21.04.2017 13:00:00 12,7 6,1 - - 15 8 - - W 1031,7 50 0,0
21.04.2017 12:00:00 12,5 7,1 - - 13 7 - - WNW 1032,2 45 0,0
21.04.2017 11:00:00 11,8 7,2 - - 11 6 - - WNW 1032,6 35 0,0
21.04.2017 10:00:00 11,5 7,0 11,0 10,0 13 7 - - W 1032,6 35 0,0
21.04.2017 09:00:00 11,1 7,3 - - 9 5 - - W 1032,4 35 0,0
21.04.2017 08:00:00 10,8 7,4 - - 11 6 - - W 1032,3 35 0,0
21.04.2017 07:00:00 10,4 7,3 - - 8 4 - - W 1032,2 35 0,0
21.04.2017 06:00:00 10,3 7,2 - - 9 5 - - W 1032,2 35 0,0
21.04.2017 05:00:00 10,4 7,1 - - 8 4 - - WNW 1032,4 35 0,0
21.04.2017 04:00:00 10,5 7,2 - - 8 4 - - WNW 1032,7 35 0,0
21.04.2017 03:00:00 10,7 7,2 - - 8 4 - - WNW 1033,0 35 0,0
21.04.2017 02:00:00 10,6 6,9 - - 9 5 - - W 1033,3 40 0,0
21.04.2017 01:00:00 10,7 6,5 - - 8 4 - - WNW 1033,7 45 0,0
21.04.2017 00:00:00 10,9 6,2 - - 8 4 - - WNW 1034,0 45 0,0

tt = temperature
td = dewpoint
tt -20cm = temperature -20cm
tt -100cm = temperature -100cm
ff = wind speed
fx = gusts
dd = wind direction
ppp = reduced air pressure
vv = visibility
rr = precipitation

Next stations